Tracking 35280 objects as of 7-Sep-2026
HD Live streaming from Space Station
objects crossing your sky now

USA 229 DEB

Track USA 229 DEB now!
10-day predictions
USA 229 DEB is classified as:


NORAD ID: 37391
Int'l Code: 2011-014B
Launch date: April 15, 2011
Source: United States (US)
Launch site: AIR FORCE WESTERN TEST RANGE (AFWTR)

Note: This is SATELLITE DEBRIS
Your satellite tracking list
Your tracking list is empty




NASA's NSSDC Master Catalog

Two Line Element Set (TLE):
1 37391U 11014B   26227.85722756 0.00000000  00000-0  00000-0 0    04
2 37391  63.4325 128.8406 0376377 357.7690   2.2310 13.41003479    07
Source of the keplerian elements: MCCANTS